Location: Arborea
(39.7744°N, 8.5819°E)
Time: 03:41:00
(UTC+00:00)

IRAS Rocket - Pass Details

Date: 24 October 2021
Orbit: 847 x 878 km, 100.1° (Epoch: 29 November)

Event Time Altitude Azimuth Distance (km) Brightness Sun altitude
Rises 18:04:31 0° 15° (NNE) 3,447 7.2 -18.1°
Reaches altitude 10° 18:06:54 10° 15° (NNE) 2,502 6.5 -18.6°
Maximum altitude 18:12:28 90° 311° (NW) 860 4.2 -19.6°
Drops below altitude 10° 18:17:57 10° 197° (SSW) 2,468 6.8 -20.7°
Sets 18:20:17 0° 197° (SSW) 3,397 7.5 -21.1°
